This demonstration page uses our WeatherBlox Daily Observations layout. Learn more.

Left ArrowRight Arrow

44.8408, -93.29828

Hourly Observations for December 15, 2017

Temp ( °F °C ) Dew Point ( °F °C ) Humidity (%) Winds ( mph kmh ) Pressure ( in mb ) Visibility ( mi km ) Precip ( " mm )
12:53 am 00:53 Cloudy 23 -5 17 -8.3 78 78 W 10 17 30.01 1016 10 16 0.00 0.00
1:53 am 01:53 Cloudy 23 -5 18 -7.8 81 81 W 9 15 29.98 1015 10 16 0.00 0.00
2:53 am 02:53 Cloudy with Light Snow 23 -5 20 -6.7 88 88 W 7 11 29.98 1015 5 8 0.00 0.03
3:18 am 03:18 Cloudy with Light Snow 23 -5 20 -6.7 88 88 WNW 7 11 30.03 1017 10 16 0.00 0.03
3:53 am 03:53 Cloudy 24 -4.4 20 -6.7 84 84 W 5 7 29.97 1015 10 16 0.00 0.03
4:53 am 04:53 Cloudy 24 -4.4 20 -6.7 84 84 WNW 3 6 29.95 1014 10 16 0.00 0.00
5:53 am 05:53 Cloudy 24 -4.4 20 -6.7 84 84 NW 5 7 29.95 1014 10 16 0.00 0.00
6:39 am 06:39 Cloudy 23 -5 19 -7.2 85 85 NW 3 6 29.97 1015 10 16 0.00 0.00
6:53 am 06:53 Mostly Cloudy 22 -5.6 19 -7.2 89 89 WNW 3 6 29.93 1014 10 16 0.00 0.00
7:10 am 07:10 Mostly Cloudy 22 -5.6 19 -7.2 89 89 W 5 7 29.97 1015 10 16 0.00 0.00
7:53 am 07:53 Cloudy 23 -5 20 -6.7 88 88 WNW 5 7 29.93 1013 10 16 0.00 0.00
8:53 am 08:53 Cloudy 24 -4.4 21 -6.1 88 88 W 3 6 29.93 1013 10 16 0.00 0.00
9:00 am 09:00 Cloudy 24 -4.4 20 -6.7 84 84 WNW 3 6 29.97 1015 10 16 0.00 0.00
9:44 am 09:44 Cloudy 25 -3.9 21 -6.1 85 85 NNW 5 7 29.94 1014 10 16 0.00 0.00
9:53 am 09:53 Cloudy 25 -3.9 21 -6.1 85 85 VRB 3 6 29.92 1013 10 16 0.00 0.00
10:13 am 10:13 Cloudy 25 -3.9 21 -6.1 85 85 NE 6 9 29.94 1014 10 16 0.00 0.00
10:34 am 10:34 Cloudy 25 -3.9 20 -6.7 81 81 NNE 5 7 29.94 1014 10 16 0.00 0.00
10:53 am 10:53 Mostly Cloudy 25 -3.9 20 -6.7 81 81 NNE 5 7 29.91 1013 10 16 0.00 0.00
11:35 am 11:35 Cloudy 25 -3.9 20 -6.7 81 81 N 7 11 29.94 1014 10 16 0.00 0.00
11:53 am 11:53 Cloudy 25 -3.9 19 -7.2 78 78 VRB 5 7 29.90 1013 10 16 0.00 0.00
12:43 pm 12:43 Cloudy 26 -3.3 20 -6.7 78 78 Calm 29.88 1012 10 16 0.00 0.00
12:53 pm 12:53 Cloudy 26 -3.3 20 -6.7 78 78 ENE 5 7 29.87 1012 10 16 0.00 0.00
1:22 pm 13:22 Cloudy 26 -3.3 20 -6.7 78 78 Calm 29.88 1012 10 16 0.00 0.00
1:53 pm 13:53 Cloudy 27 -2.8 20 -6.7 75 75 Calm 29.85 1011 10 16 0.00 0.00
2:53 pm 14:53 Cloudy 27 -2.8 21 -6.1 78 78 NE 3 6 29.83 1010 10 16 0.00 0.00
3:04 pm 15:04 Cloudy 28 -2.2 21 -6.1 75 75 NE 3 6 29.85 1011 10 16 0.00 0.00
3:53 pm 15:53 Cloudy 28 -2.2 21 -6.1 75 75 SE 5 7 29.81 1010 10 16 0.00 0.00
4:00 pm 16:00 Cloudy 28 -2.2 22 -5.6 78 78 SE 3 6 29.85 1011 10 16 0.00 0.00
4:25 pm 16:25 Cloudy 28 -2.2 22 -5.6 78 78 SE 6 9 29.83 1010 10 16 0.00 0.00
4:53 pm 16:53 Cloudy 28 -2.2 22 -5.6 78 78 SE 7 11 29.81 1010 10 16 0.00 0.00
5:00 pm 17:00 Cloudy 27 -2.8 22 -5.6 81 81 SE 6 9 29.83 1010 10 16 0.00 0.00
5:34 pm 17:34 Cloudy with Light Snow 27 -2.8 22 -5.6 81 81 ESE 7 11 29.83 1010 7 11 0.00 0.03
5:53 pm 17:53 Cloudy with Light Snow 27 -2.8 23 -5 85 85 SE 6 9 29.79 1009 5 8 0.00 0.03
6:53 pm 18:53 Cloudy with Light Snow 27 -2.8 24 -4.4 89 89 SE 7 11 29.79 1009 2 3 0.00 0.03
7:28 pm 19:28 Cloudy with Light Snow 27 -2.8 25 -3.9 92 92 ESE 8 13 29.80 1009 3 5 0.01 0.25
7:46 pm 19:46 Cloudy with Light Snow 27 -2.8 25 -3.9 92 92 SE 7 11 29.80 1009 4 6 0.01 0.25
7:53 pm 19:53 Cloudy with Light Snow 27 -2.8 25 -3.9 92 92 ESE 7 11 29.78 1009 4 6 0.01 0.25
8:09 pm 20:09 Cloudy with Light Snow 26 -3.3 25 -3.9 96 96 SE 7 11 29.80 1009 2 3 0.00 0.03
8:35 pm 20:35 Cloudy with Light Snow 27 -2.8 26 -3.3 96 96 SE 9 15 29.80 1009 2 3 0.01 0.25
8:50 pm 20:50 Cloudy with Light Snow 27 -3 27 -3 100 100 SE 7 11 29.80 1009 2 3 0.02 0.51
8:53 pm 20:53 Cloudy with Light Snow 27 -2.8 26 -3.3 96 96 SE 7 11 29.76 1008 2 3 0.02 0.51
9:10 pm 21:10 Cloudy with Light Snow 27 -2.8 27 -2.8 100 100 SE 6 9 29.80 1009 2 3 0.00 0.03
9:53 pm 21:53 Cloudy with Light Snow 28 -2.2 28 -2.2 100 100 ESE 5 7 29.75 1007 2 3 0.01 0.25
10:09 pm 22:09 Cloudy with Light Snow 29 -1.7 28 -2.2 96 96 E 13 20 29.74 1007 2 3 0.01 0.25
10:18 pm 22:18 Cloudy with Light Snow 29 -1.7 28 -2.2 96 96 ESE 9 15 29.74 1007 4 6 0.01 0.25
10:53 pm 22:53 Cloudy with Mist and Fog 29 -1.7 28 -2.2 96 96 SE 8 13 29.71 1006 4 6 0.01 0.25
11:53 pm 23:53 Cloudy 30 -1.1 29 -1.7 96 96 ESE 10 17 29.69 1006 7 11 0.00 0.00

Powered by AerisWeather